TimeCDT,TemperatureF,Dew PointF,Humidity,Sea Level PressureIn,VisibilityMPH,Wind Direction,Wind SpeedMPH,Gust SpeedMPH,PrecipitationIn,Events,Conditions,WindDirDegrees,DateUTC
12:15 AM,64.4,63.5,97,30.07,7.0,SSE,6.9,-,N/A,,Overcast,150,2013-07-30 05:15:00
12:35 AM,64.4,63.5,97,30.08,5.0,South,9.2,-,N/A,,Overcast,170,2013-07-30 05:35:00
12:55 AM,64.6,63.7,97,30.08,5.0,South,5.8,-,N/A,,Overcast,180,2013-07-30 05:55:00
1:15 AM,64.8,63.9,97,30.08,5.0,South,4.6,-,N/A,,Overcast,190,2013-07-30 06:15:00
1:35 AM,63.9,63.0,97,30.08,5.0,South,5.8,-,N/A,,Mostly Cloudy,180,2013-07-30 06:35:00
1:55 AM,64.4,63.7,98,30.08,5.0,SSW,6.9,-,N/A,,Overcast,200,2013-07-30 06:55:00
2:15 AM,64.4,63.5,97,30.08,5.0,SSW,8.1,-,N/A,,Overcast,200,2013-07-30 07:15:00
2:35 AM,64.0,63.5,98,30.08,3.0,South,8.1,-,N/A,,Overcast,190,2013-07-30 07:35:00
2:55 AM,64.0,63.5,98,30.08,3.0,South,6.9,-,N/A,,Overcast,180,2013-07-30 07:55:00
3:15 AM,64.4,63.9,98,30.09,4.0,SSW,9.2,-,N/A,,Overcast,200,2013-07-30 08:15:00
3:35 AM,64.6,63.9,98,30.09,4.0,SSW,10.4,-,N/A,,Overcast,210,2013-07-30 08:35:00
3:55 AM,64.8,63.9,97,30.10,5.0,SSW,4.6,-,N/A,,Overcast,200,2013-07-30 08:55:00
4:15 AM,64.4,63.5,97,30.10,4.0,South,3.5,-,N/A,,Overcast,190,2013-07-30 09:15:00
4:35 AM,63.7,63.1,98,30.10,3.0,SSW,5.8,-,N/A,,Overcast,200,2013-07-30 09:35:00
4:55 AM,63.7,63.5,99,30.10,1.8,SW,6.9,-,N/A,,Overcast,220,2013-07-30 09:55:00
5:15 AM,63.7,63.5,99,30.10,1.5,SSW,8.1,-,N/A,,Overcast,210,2013-07-30 10:15:00
5:35 AM,63.5,63.5,100,30.10,1.5,SSW,6.9,-,N/A,,Overcast,210,2013-07-30 10:35:00
5:55 AM,63.5,63.3,99,30.10,1.5,SSW,6.9,-,N/A,,Overcast,210,2013-07-30 10:55:00
6:15 AM,63.3,63.0,99,30.10,1.0,SW,5.8,-,N/A,,Overcast,220,2013-07-30 11:15:00
6:35 AM,63.0,62.8,99,30.10,0.2,SW,4.6,-,N/A,Fog,Fog,220,2013-07-30 11:35:00
6:55 AM,62.8,62.6,99,30.10,0.2,SSW,3.5,-,N/A,Fog,Fog,210,2013-07-30 11:55:00
7:15 AM,62.8,62.6,99,30.11,0.2,Calm,Calm,-,N/A,Fog,Fog,0,2013-07-30 12:15:00
7:35 AM,62.8,62.8,100,30.11,0.2,Calm,Calm,-,N/A,Fog,Fog,0,2013-07-30 12:35:00
7:55 AM,63.3,63.3,100,30.12,0.5,Calm,Calm,-,N/A,Fog,Fog,0,2013-07-30 12:55:00
8:15 AM,64.6,64.4,99,30.12,4.0,Calm,Calm,-,N/A,,Scattered Clouds,0,2013-07-30 13:15:00
8:35 AM,64.9,64.8,99,30.12,4.0,Calm,Calm,-,N/A,,Mostly Cloudy,0,2013-07-30 13:35:00
8:55 AM,65.5,65.1,99,30.12,5.0,Calm,Calm,-,N/A,,Scattered Clouds,0,2013-07-30 13:55:00
9:15 AM,68.2,65.7,92,30.12,7.0,Calm,Calm,-,N/A,,Clear,0,2013-07-30 14:15:00
9:35 AM,70.7,65.3,83,30.12,10.0,Calm,Calm,-,N/A,,Clear,0,2013-07-30 14:35:00
9:55 AM,72.5,65.5,79,30.12,10.0,Calm,Calm,-,N/A,,Clear,0,2013-07-30 14:55:00
10:15 AM,73.8,66.4,78,30.13,10.0,Calm,Calm,-,N/A,,Clear,0,2013-07-30 15:15:00
10:35 AM,75.4,66.0,73,30.13,10.0,East,4.6,-,N/A,,Clear,80,2013-07-30 15:35:00
10:55 AM,75.9,63.9,66,30.13,10.0,East,8.1,-,N/A,,Clear,80,2013-07-30 15:55:00
11:15 AM,76.5,63.9,65,30.13,10.0,ESE,6.9,-,N/A,,Clear,110,2013-07-30 16:15:00
11:55 AM,78.1,64.0,62,30.14,10.0,East,8.1,-,N/A,,Clear,90,2013-07-30 16:55:00
12:15 PM,79.5,65.1,61,30.14,10.0,East,6.9,-,N/A,,Clear,80,2013-07-30 17:15:00
12:35 PM,80.1,63.3,56,30.13,10.0,East,6.9,-,N/A,,Clear,90,2013-07-30 17:35:00
1:15 PM,80.8,63.0,54,30.12,10.0,East,10.4,-,N/A,,Clear,90,2013-07-30 18:15:00
1:35 PM,81.9,62.1,51,30.12,10.0,ESE,5.8,9.2,N/A,,Clear,110,2013-07-30 18:35:00
1:55 PM,82.9,61.3,48,30.11,10.0,East,8.1,-,N/A,,Clear,100,2013-07-30 18:55:00
2:15 PM,83.5,61.0,46,30.11,10.0,SE,5.8,-,N/A,,Clear,130,2013-07-30 19:15:00
2:35 PM,84.0,61.2,46,30.11,10.0,East,8.1,-,N/A,,Clear,90,2013-07-30 19:35:00
2:55 PM,85.1,61.0,44,30.10,10.0,East,8.1,-,N/A,,Clear,90,2013-07-30 19:55:00
3:15 PM,86.0,59.4,40,30.09,10.0,ESE,12.7,-,N/A,,Clear,120,2013-07-30 20:15:00
3:35 PM,86.2,57.0,37,30.08,10.0,SE,9.2,-,N/A,,Clear,130,2013-07-30 20:35:00
3:55 PM,86.7,56.8,36,30.07,10.0,SSE,6.9,-,N/A,,Clear,150,2013-07-30 20:55:00
4:15 PM,87.8,57.9,36,30.05,10.0,SSE,11.5,17.3,N/A,,Clear,150,2013-07-30 21:15:00
4:35 PM,88.2,57.6,35,30.04,10.0,SSE,13.8,-,N/A,,Scattered Clouds,150,2013-07-30 21:35:00
4:55 PM,87.3,56.3,35,30.04,10.0,SSE,12.7,-,N/A,,Scattered Clouds,160,2013-07-30 21:55:00
5:15 PM,85.8,56.3,36,30.03,10.0,SSE,12.7,18.4,N/A,,Scattered Clouds,160,2013-07-30 22:15:00
5:35 PM,84.7,57.0,39,30.05,10.0,SSE,11.5,-,N/A,,Scattered Clouds,160,2013-07-30 22:35:00
5:55 PM,82.6,59.0,45,30.03,10.0,South,16.1,-,N/A,Thunderstorm,Clear,180,2013-07-30 22:55:00
6:15 PM,81.7,57.6,44,30.08,10.0,South,4.6,-,N/A,Thunderstorm,Mostly Cloudy,180,2013-07-30 23:15:00
6:35 PM,74.1,61.2,64,30.08,10.0,ENE,19.6,41.4,N/A,Rain-Thunderstorm,Light Thunderstorms and Rain,60,2013-07-30 23:35:00
6:55 PM,69.1,61.9,78,30.10,10.0,ENE,20.7,32.2,N/A,,Overcast,60,2013-07-30 23:55:00
7:15 PM,68.2,61.2,78,30.08,10.0,ENE,20.7,29.9,N/A,Thunderstorm,Overcast,70,2013-07-31 00:15:00
7:35 PM,65.5,63.5,93,30.12,0.2,North,34.5,42.6,0.37,Rain-Thunderstorm,Heavy Thunderstorms and Rain,10,2013-07-31 00:35:00
7:55 PM,63.9,63.7,99,30.15,0.5,ESE,17.3,27.6,1.52,Rain-Thunderstorm,Thunderstorms and Rain,110,2013-07-31 00:55:00
8:15 PM,64.8,64.6,99,30.17,10.0,ENE,11.5,21.9,0.01,Rain-Thunderstorm,Light Thunderstorms and Rain,60,2013-07-31 01:15:00
8:35 PM,64.8,64.4,99,30.23,10.0,NW,5.8,18.4,0.02,Rain-Thunderstorm,Light Thunderstorms and Rain,320,2013-07-31 01:35:00
8:55 PM,64.4,64.4,100,30.15,7.0,SE,13.8,-,0.04,Rain,Light Rain,130,2013-07-31 01:55:00
9:15 PM,63.0,62.6,99,30.12,10.0,ESE,15.0,19.6,N/A,,Scattered Clouds,120,2013-07-31 02:15:00
9:35 PM,62.1,61.3,97,30.12,10.0,SE,15.0,-,N/A,,Clear,140,2013-07-31 02:35:00
9:55 PM,64.4,58.6,82,30.11,10.0,SE,9.2,-,N/A,,Clear,130,2013-07-31 02:55:00
10:15 PM,64.4,57.4,78,30.12,10.0,SE,6.9,-,N/A,,Clear,140,2013-07-31 03:15:00
10:35 PM,64.4,55.0,72,30.12,10.0,SSE,12.7,-,N/A,Thunderstorm,Clear,150,2013-07-31 03:35:00
10:55 PM,63.3,53.8,71,30.12,10.0,SSE,12.7,-,N/A,,Clear,160,2013-07-31 03:55:00
11:15 PM,63.7,55.0,73,30.10,10.0,SSE,18.4,-,N/A,,Clear,160,2013-07-31 04:15:00
11:35 PM,63.5,57.4,80,30.14,10.0,South,8.1,-,N/A,,Scattered Clouds,190,2013-07-31 04:35:00
11:55 PM,63.1,57.4,81,30.21,10.0,NW,13.8,-,N/A,,Mostly Cloudy,320,2013-07-31 04:55:00